EW5195 Weather Reports


time (UTC)temp
C
wind
direction
speed
KPH
gust
KPH
rain 1hr
cm
rain 24hr
cm
rain mn
cm
humidity
%
barometer
mb
20260507161558 12 0 0.0 4.8 0.00 0.15 0.15 76 1013.0
20260507160056 12 5 1.6 12.9 0.00 0.15 0.15 76 1013.3
20260507154606 12 5 4.8 9.7 0.00 0.25 0.15 77 1013.2
20260507153058 12 9 0.0 6.4 0.00 0.25 0.15 80 1013.0
20260507151554 13 0 0.0 1.6 0.00 0.25 0.15 81 1013.1
20260507150059 13 0 0.0 1.6 0.00 0.25 0.15 81 1013.1
20260507144556 13 0 3.2 8.0 0.00 0.30 0.15 80 1012.8
20260507143107 13 0 0.0 6.4 0.00 0.30 0.15 81 1012.9
20260507141552 13 80 3.2 8.0 0.00 0.30 0.15 82 1013.3
20260507140057 13 0 1.6 6.4 0.00 0.30 0.15 84 1013.1
20260507134601 13 40 0.0 11.3 0.00 0.30 0.15 86 1013.2
20260507133100 13 0 0.0 6.4 0.00 0.30 0.15 86 1013.0
20260507131611 13 19 1.6 6.4 0.00 0.30 0.15 88 1012.8
20260507130052 13 0 0.0 4.8 0.00 0.30 0.15 88 1012.8
20260507124553 13 344 1.6 8.0 0.00 0.30 0.15 89 1013.1
20260507123055 13 0 0.0 0.0 0.00 0.30 0.15 91 1012.4
20260507121554 13 0 0.0 4.8 0.00 0.30 0.15 91 1012.3
20260507120058 13 0 0.0 3.2 0.00 0.30 0.15 91 1012.3
20260507114553 13 0 0.0 0.0 0.05 0.30 0.15 91 1012.8
20260507113053 13 0 0.0 1.6 0.05 0.30 0.15 91 1012.6
20260507111553 13 0 0.0 4.8 0.08 0.30 0.15 91 1012.4
20260507110053 13 0 0.0 1.6 0.08 0.30 0.15 91 1012.4
20260507104552 13 0 0.0 9.7 0.03 0.25 0.10 90 1012.1
20260507103052 13 5 1.6 6.4 0.05 0.25 0.10 90 1011.4
20260507101554 13 9 1.6 6.4 0.03 0.23 0.08 90 1011.0
20260507100053 13 360 3.2 8.0 0.03 0.23 0.08 90 1011.7
20260507094551 14 0 3.2 6.4 0.03 0.23 0.08 90 1011.3
20260507093055 15 5 3.2 8.0 0.00 0.20 0.05 90 1011.4
20260507091552 15 0 0.0 8.0 0.03 0.20 0.05 89 1011.3
20260507090049 16 352 4.8 12.9 0.03 0.20 0.05 88 1011.4
20260507084551 18 20 6.4 11.3 0.03 0.20 0.05 89 1010.8
20260507083058 18 22 0.0 4.8 0.03 0.20 0.05 91 1010.3
20260507081554 18 0 0.0 1.6 0.00 0.18 0.03 91 1010.3
20260507080116 18 0 0.0 4.8 0.03 0.18 0.03 91 1010.0
20260507074558 18 0 0.0 3.2 0.03 0.18 0.03 90 1010.0
20260507073058 19 0 0.0 6.4 0.03 0.18 0.03 89 1010.0
20260507071609 20 0 0.0 0.0 0.03 0.18 0.03 88 1010.2
20260507070057 20 0 0.0 3.2 0.00 0.15 0.00 87 1010.1
20260507064555 20 216 0.0 4.8 0.00 0.15 0.00 86 1009.8
20260507063056 20 0 0.0 3.2 0.00 0.15 0.00 86 1009.8
20260507061558 20 0 0.0 8.0 0.00 0.15 0.00 86 1009.6
20260507060057 20 0 0.0 4.8 0.00 0.15 0.00 86 1009.8
20260507054554 20 0 0.0 3.2 0.00 0.15 0.00 86 1010.0
20260507053120 20 0 0.0 4.8 0.00 0.15 0.00 85 1010.1
20260507051605 20 0 0.0 11.3 0.00 0.15 0.00 86 1010.3
20260507050059 20 0 0.0 8.0 0.00 0.15 0.00 86 1010.8
20260507044608 20 0 0.0 1.6 0.00 0.15 0.00 86 1011.1
20260507043101 19 0 0.0 3.2 0.00 0.15 0.00 87 1011.3
20260507041557 20 0 0.0 4.8 0.00 0.15 0.00 87 1011.2
20260507040100 20 0 0.0 4.8 0.00 0.15 0.00 86 1010.9
20260507034556 19 0 0.0 4.8 0.00 0.15 0.15 86 1011.1
20260507033101 19 0 0.0 6.4 0.00 0.15 0.15 87 1010.6
20260507031556 19 0 0.0 4.8 0.00 0.15 0.15 87 1010.8
20260507030057 19 0 0.0 3.2 0.00 0.15 0.15 87 1010.4
20260507024601 19 0 0.0 8.0 0.00 0.15 0.15 87 1010.6
20260507023054 19 0 0.0 0.0 0.00 0.15 0.15 87 1010.9
20260507021555 19 0 0.0 3.2 0.00 0.15 0.15 87 1011.0
20260507020053 19 0 0.0 1.6 0.00 0.15 0.15 87 1011.1
20260507014602 19 0 0.0 0.0 0.00 0.15 0.15 87 1011.2
20260507013053 19 0 0.0 1.6 0.00 0.15 0.15 87 1010.7
20260507011552 19 0 0.0 4.8 0.00 0.15 0.15 87 1010.9
20260507004601 20 0 0.0 1.6 0.00 0.15 0.15 85 1011.1
20260507003056 20 0 0.0 6.4 0.00 0.15 0.15 85 1011.0
20260507001555 20 0 0.0 3.2 0.00 0.15 0.15 85 1011.2
20260507000057 20 0 0.0 0.0 0.00 0.15 0.15 85 1011.1
20260506234554 20 0 0.0 3.2 0.00 0.15 0.15 84 1010.7
20260506233056 21 0 0.0 1.6 0.00 0.15 0.15 82 1010.8
20260506231558 21 0 0.0 3.2 0.00 0.15 0.15 82 1010.7
20260506230059 21 0 0.0 6.4 0.00 0.15 0.15 81 1010.8
20260506224556 21 0 0.0 1.6 0.00 0.15 0.15 80 1010.9
20260506223052 21 0 0.0 3.2 0.00 0.15 0.15 78 1010.8
20260506221555 21 313 0.0 4.8 0.00 0.15 0.15 79 1010.7
20260506220056 22 0 0.0 6.4 0.00 0.15 0.15 76 1010.7
20260506214604 22 0 1.6 11.3 0.00 0.15 0.15 75 1010.8
20260506213056 22 0 0.0 8.0 0.00 0.15 0.15 78 1011.1
20260506211603 21 0 0.0 8.0 0.00 0.15 0.15 79 1010.8
20260506210056 21 0 0.0 4.8 0.00 0.15 0.15 81 1010.8
20260506204552 21 0 0.0 6.4 0.00 0.15 0.15 80 1010.6
20260506203052 21 0 0.0 3.2 0.00 0.15 0.15 82 1010.7
20260506201552 21 0 0.0 1.6 0.00 0.15 0.15 83 1010.4
20260506200103 21 0 0.0 6.4 0.00 0.15 0.15 81 1010.4
20260506194606 20 0 0.0 4.8 0.00 0.15 0.15 84 1010.1
20260506193056 20 0 0.0 9.7 0.00 0.15 0.15 84 1010.5
20260506191605 19 0 0.0 8.0 0.00 0.15 0.15 85 1011.0
20260506190053 18 0 1.6 11.3 0.00 0.15 0.15 87 1010.9
20260506184554 18 0 1.6 8.0 0.00 0.15 0.15 87 1011.5
20260506183108 18 0 0.0 8.0 0.00 0.15 0.15 87 1012.0
20260506181601 18 0 0.0 8.0 0.00 0.15 0.15 87 1012.3
20260506180115 18 0 0.0 11.3 0.00 0.15 0.15 86 1012.5
20260506174554 18 0 0.0 12.9 0.00 0.15 0.15 84 1012.5
20260506173126 18 0 0.0 9.7 0.00 0.15 0.15 85 1012.5
20260506171556 18 211 0.0 6.4 0.00 0.15 0.15 85 1012.3
20260506170053 17 216 0.0 11.3 0.00 0.15 0.15 87 1012.8
20260506164551 17 0 0.0 12.9 0.00 0.15 0.15 87 1012.5
20260506163100 17 0 0.0 8.0 0.00 0.15 0.15 88 1012.6